Regional Weather Roundup
Issued by NWS Sterling, VA

Home | Current Version | Previous Version | Graphics & Text | Print | Product List | Glossary On
Versions: 1 2 3 4 5 6 7 8 9 10 11 12 13 14 15 16 17 18 19 20 21 22 23 24 25 26 27
000
ASUS41 KLWX 221611
RWRLWX

REGIONAL WEATHER ROUNDUP
NATIONAL WEATHER SERVICE BALTIMORE MD/WASHINGTON DC
1100 AM EST WED FEB 22 2017

Note: "FAIR" indicates few or no clouds below 12,000 feet
with no significant weather and/or obstructions to visibility.
 TC=TEMPERATURE CELSIUS

 * =Non NWS site. Station does not report precipitation (e.g. rain,
    snow, etc.), thunder, or fog.

DCZ001-MDZ009-015-VAZ040>042-051-053>054-221700-
WASHINGTON METRO

CITY           SKY/WX    TMP DP  RH WIND       PRES   REMARKS
WASHINGTON NAT CLOUDY    52  45  77 S6        30.01F
DULLES         CLOUDY    53  41  63 VRB3      30.00F
ANDREWS AFB    CLOUDY    53  44  69 S3        29.99F
FT BELVOIR     MOSUNNY   53  43  70 CALM      30.00F
QUANTICO       CLOUDY    50  47  89 S5        30.02F
COLLEGE PARK*  MOSUNNY   54  41  62 CALM      29.99F
LEESBURG*      CLOUDY    54  45  71 CALM      30.00F
MANASSAS*      CLOUDY    53  43  68 S3        30.00F
GAITHERSBURG*  CLOUDY    55  39  54 CALM      30.03F

$$

MDZ006>007-011-014-221700-
BALTIMORE METRO

CITY           SKY/WX    TMP DP  RH WIND       PRES   REMARKS
BWI AIRPORT    CLOUDY    54  42  64 CALM      30.00F
MD SCIENCE CTR   N/A     51  40  65 MISG      30.01F
MARTIN STATE   MOSUNNY   52  45  76 SE7       30.02F
ANNAPOLIS      MOSUNNY   47  43  86 SE9       30.01F
FORT MEADE*    CLOUDY    54  41  62 CALM      30.02F

$$

MDZ012-015-019>023-221700-
MARYLAND EASTERN SHORE

CITY           SKY/WX    TMP DP  RH WIND       PRES   REMARKS
OCEAN CITY     CLOUDY    52  47  83 S5        30.05F
SALISBURY      CLOUDY    57  50  77 SW10      30.03F
BAY BRIDGE AP* CLOUDY    52  45  76 S6        30.01F HAZE
CAMBRIDGE*       N/A    N/A N/A N/A MISG        N/A
EASTON*        CLOUDY    54  46  76 SW7       30.05F

$$

MDZ017>025-221700-
SOUTHERN MARYLAND

CITY           SKY/WX    TMP DP  RH WIND       PRES   REMARKS
PATUXENT RIVER CLOUDY    52  48  86 VRB6      30.02F
ST INIGOES     CLOUDY    53  47  79 S6        30.02F
LEONARDTOWN*   CLOUDY    54  45  71 SW5       30.03F

$$

MDZ003>005-221700-
NORTH CENTRAL MARYLAND

CITY           SKY/WX    TMP DP  RH WIND       PRES   REMARKS
FREDERICK*     SUNNY     52  43  71 SW3       30.02F
HAGERSTOWN APT MOSUNNY   54  40  59 CALM      29.98F
WESTMINSTER*   CLOUDY    55  43  62 S5        29.98F

$$

MDZ501>502-221700-
WESTERN MARYLAND

CITY           SKY/WX    TMP DP  RH WIND       PRES   REMARKS
OAKLAND*       NOT AVBL
CUMBERLAND*    MOSUNNY   54  37  54 CALM      30.02F

$$

VAZ025>031-221700-
SHENANDOAH VALLEY

CITY           SKY/WX    TMP DP  RH WIND       PRES   REMARKS
WINCHESTER*    CLOUDY    55  43  62 SW7       29.98F
FRONT ROYAL*   CLOUDY    59  45  58 SW8       29.97F
LURAY*         CLOUDY    57  48  72 S6        29.99F
NEW MARKET*    CLOUDY    56  44  64 SW6       29.99F
STAUNTON*      CLOUDY    52  47  83 CALM      30.02F
WAYNESBORO*    CLOUDY    52  48  87 SW5       30.00F

$$

WVZ021-048>050-054>055-221700-
EASTERN WEST VIRGINIA PANHANDLE

CITY           SKY/WX    TMP DP  RH WIND       PRES   REMARKS
MARTINSBURG    MOSUNNY   52  38  58 CALM      29.98F
PETERSBURG*    CLOUDY    58  45  61 CALM      29.98F

$$

VAZ036>039-050-221700-
CENTRAL FOOTHILLS

CITY           SKY/WX    TMP DP  RH WIND       PRES   REMARKS
CHARLOTTESVILL CLOUDY    53  49  86 W3        30.00F
CULPEPER*      CLOUDY    53  47  78 CALM      30.01F
ORANGE*        CLOUDY    54  48  82 CALM      30.01F
GORDONSVILLE*  CLOUDY    52  48  86 SW7       30.00S
WARRENTON*     CLOUDY    55  43  63 CALM      29.99F

$$

VAZ055>057-221700-
NORTH AND CENTRAL PIEDMONT

CITY           SKY/WX    TMP DP  RH WIND       PRES   REMARKS
FREDERICKSBRG* CLOUDY    53  49  89 CALM      30.00F
STAFFORD*      CLOUDY    51  49  93 CALM      30.05F

$$

NCZ024-NYZ072-PAZ021-071-VAZ022-071-221700-
OTHER REGIONAL OBSERVATIONS

CITY           SKY/WX    TMP DP  RH WIND       PRES   REMARKS
NEW YORK CITY  CLOUDY    48  36  63 W3        30.03F
PHILADELPHIA   PTSUNNY   49  40  71 W3        30.03F
PITTSBURGH     CLOUDY    59  45  59 SW8       29.93F
ROANOKE        LGT RAIN  50  47  89 CALM      30.05F
RICHMOND       CLOUDY    56  48  74 W6        30.03F
RALEIGH        CLOUDY    66  52  60 SW8       30.03S

$$

ANZ530>537-221700-
MARINE OBSERVATIONS

STATION/POSITION TIME  TEMP    WIND        PRES
                       AIR SEA DIR/SP/G
                 (UTC) (F)     (DEG/KT/KT) (MB)
THOMAS PT LIGHT  1600   45 42  180/  4/  4   N/A
BALT KEY BRIDGE  1548   47      CALM  /  1 1016.4F
COVE POINT       1548   44     180/ 10/ 11 1017.1F
LEWISETTA        1548   55 44  240/  6/  8 1016.6F
SOLOMONS ISLAND  1548   45 43   90/  6/  8   N/A
PINEY POINT      1548          130/  5/  5   N/A

$$





USA.gov is the U.S. government's official web portal to all federal, state and local government web resources and services.